Regional Weather Roundup
Issued by NWS Upton, NY

Current Version | Previous Version | Graphics & Text | Print | Product List | Glossary Off
Versions: 1 2 3 4 5 6 7 8 9 10 11 12 13 14 15 16 17 18 19 20 21 22 23 24 25 26 27 28 29 30 31 32 33 34 35 36 37 38 39 40 41 42 43 44 45 46 47 48 49 50

000
ASUS41 KOKX 201408
RWROKX

REGIONAL WEATHER ROUNDUP
NATIONAL WEATHER SERVICE NEW YORK NY
1000 AM EDT FRI OCT 20 2017

NOTE: "FAIR" INDICATES FEW OR NO CLOUDS BELOW 12,000 FEET WITH NO
SIGNIFICANT WEATHER AND/OR OBSTRUCTIONS TO VISIBILITY.

NYZ071-072-176-178-NJZ106-104-201500-
NEW YORK CITY METRO AREA

CITY           SKY/WX    TMP DP  RH WIND       PRES   REMARKS
Central Park   SUNNY     61  40  45 W8        30.20R
Bronx Bot Gard   N/A     63  41  45 NW1       30.19R
LaGuardia APRT MOSUNNY   63  40  42 NW12      30.17R
Kennedy INTL   MOSUNNY   65  38  36 NW15      30.18R
Breezy Point     N/A     63 N/A N/A NW8         N/A
Newark/Liberty MOSUNNY   64  42  44 NW8       30.18R
Teterboro      SUNNY     64  41  42 NW10      30.17R
$$

NYZ177-179-078>081-201500-
LONG ISLAND NEW YORK

CITY           SKY/WX    TMP DP  RH WIND       PRES   REMARKS
Jones Beach      N/A     63 N/A N/A NW13        N/A
Matinecock PT    N/A     63 N/A N/A W13         N/A
Farmingdale    SUNNY     64  44  48 NW9       30.16R
MacArthur/ISP  MOSUNNY   65  46  50 NW12G22   30.15R
Shirley        SUNNY     67  49  52 NW12      30.15R
Mt Sinai Harb    N/A    N/A N/A N/A NW7         N/A
Westhampton    SUNNY     65  45  48 N13       30.15R
East Hampton   FAIR      63  42  47 N9G17     30.12R
Montauk          N/A     64  45  49 NW14G21   30.13R
$$

NYZ052-065-067-201500-
HUDSON VALLEY

CITY           SKY/WX    TMP DP  RH WIND       PRES   REMARKS
White Plains   SUNNY     62  38  40 NW10      30.16R
Larchmont Harb   N/A     61 N/A N/A W12         N/A
Croton On Huds   N/A     64 N/A N/A NW7         N/A
Newburgh       SUNNY     59  43  55 W14       30.18R
Montgomery     SUNNY     61  39  44 W9        30.17R
Poughkeepsie   SUNNY     59  41  51 CALM      30.16R
Albany         MOSUNNY   58  41  53 NW8G16    30.16R
$$

NJZ001-105-106-008-010-013-015-019>022-104-201500-
NEW JERSEY

CITY           SKY/WX    TMP DP  RH WIND       PRES   REMARKS
Newark/Liberty MOSUNNY   64  42  44 NW8       30.18R
Teterboro      SUNNY     64  41  42 NW10      30.17R
Caldwell       SUNNY     63  40  42 NW12      30.19R
Somerville     SUNNY     62  50  64 MISG      30.18S
Linden         FAIR      63  43  47 NW7       30.19S
Perth Amboy      N/A     61 N/A N/A NW12        N/A
Sussex         SUNNY     59  46  62 VRB3      30.20R
Andover          N/A     61  42  49 NW6       30.21R
Trenton        SUNNY     63  48  58 NW6       30.21R
Millville      SUNNY     67  53  61 NW8       30.22R
Atlantic City  SUNNY     66  52  60 NW10      30.20
Wrightstown    SUNNY     64  49  59 NW8       30.18R
Toms River       N/A     64  47  53 NW13      30.20R
Belmar         SUNNY     64  44  48 NW9       30.20R
$$

PAZ047>061-062-071-201500-
EASTERN PENNSYLVANIA

CITY           SKY/WX    TMP DP  RH WIND       PRES   REMARKS
Philadelphia   MOSUNNY   65  48  54 NW10      30.23R
Allentown      SUNNY     62  48  60 W5        30.22R
Scranton       SUNNY     59  41  51 W8        30.24R
$$

CTZ002-004>006-009-010-012-RIZ004-006-007-MAZ004-011-015-201500-
SOUTHERN NEW ENGLAND
 IN CT

CITY           SKY/WX    TMP DP  RH WIND       PRES   REMARKS
Bradley INTL   MOSUNNY   62  39  42 VRB6      30.12R
Hartford       SUNNY     63  38  39 W14G21    30.12R
Danbury        SUNNY     61  42  49 W5        30.17R
Wtrbury/Oxford SUNNY     58  39  49 VRB7      30.15S
Norwalk Harbor   N/A     61 N/A N/A NW12        N/A
Bridgeport     SUNNY     64  42  44 NW12      30.15R
Meriden        SUNNY     62  38  40 NW8G18    30.13S
New Haven      SUNNY     64  41  42 NW13      30.14R
Chester        FAIR      63  39  42 NW8G25    30.12F
Groton         SUNNY     63  41  44 NW13G23   30.11R
Wilimantic     SUNNY     62  40  44 NW8G21    30.12R

 IN RI

CITY           SKY/WX    TMP DP  RH WIND       PRES   REMARKS
Providence     MOSUNNY   63  44  50 NW16      30.09R
Block Island   SUNNY     62  45  53 NW14G23   30.11R
Westerly       SUNNY     64  42  44 NW9       30.11R
 IN MA

CITY           SKY/WX    TMP DP  RH WIND       PRES   REMARKS
Boston         MOSUNNY   63  39  41 NW17G24   30.06R
Worcester      SUNNY     56  39  53 W10       30.09R
Westfield      SUNNY     62  37  39 NW13      30.11R
Provincetown   SUNNY     62  50  64 NW16G22   30.05R
Nantucket      SUNNY     65  52  62 NW14      30.05R
$$

ANZ330-335-338-340-345-350-353-355-201500-
COASTAL MARINE OBSERVATIONS


STATION/POSITION TIME  SKY/WX   TEMP    WIND        PRES    VSBY  WAVE
                                AIR SEA DIR/SP/G                  HT/PER
                 (UTC)          (F)     (DEG/KT/KT) (MB)    (MI)  (FT/S)
NY HARB ENTRANCE 1250            63 65  300/ 17/ 19 1020.1          3/10
20 S FIRE ISLAND 1250            64 64  320/ 19/ 21 1020.3          4/ 9
GREAT SOUTH BAY  1330            62 61  320/ 10/ 12   N/A
15 E BARNEGAT LI NOT AVBL
HUDSON CANYON    1250            65 65  310/ 14/ 16 1019.7          4/ 5
KINGS POINT      1324            61 65  350/ 12/ 16 1022.1
EXECUTION ROCKS  1330            65     280/ 12/ 16   N/A
WESTERN LI SOUND 1249            62     310/  8/ 12   N/A           1
CENTRAL LI SOUND NOT AVBL
EASTERN LI SOUND NOT AVBL
ROBBINS REEF     1336            61     290/ 13/ 15 1022.4
$$


>>>>>>>>>>>>>>>>>>>>>>>>>>>> KEY <<<<<<<<<<<<<<<<<<<<<<<<<<<
>                                                          <
>     SKY/WX - Sky Condition/Present Weather               <
>     TMP    - Temperature in Fahrenheit                   <
>     DP     - Dew Point in Fahrenheit                     <
>     RH     - Relative Humidity in Percent                <
>     WIND   - Direction (from) and Speed in MPH           <
>     PRES   - Mean Sea Level Pressure (inches of Hg)      <
>     WCI    - Wind Chill Index                            <
>     VSB    - VISIBILITY IN MILES                         <
>     HX     - HEAT INDEX                                  <
>     TC     - TEMPERATURE IN CELSIUS                      <
>     VRB    - VARIABLE WIND DIRECTION                     <
>                                                          <
>>>>>>>>>>>>>>>>>>>>>>>>>>>> KEY <<<<<<<<<<<<<<<<<<<<<<<<<<<



USA.gov is the U.S. government's official web portal to all federal, state and local government web resources and services.